Location: Cowley
(49.5667°N, 114.0667°W)
Time: 18:09:49
(UTC+00:00)

ISS - Pass Details

Date: 08 December 2021
Orbit: 413 x 422 km, 51.6° (Epoch: 27 January)

Event Time Altitude Azimuth Distance (km) Brightness Sun altitude
Rises 01:21:49 0° 284° (WNW) 2,387 1.1 -16.1°
Reaches altitude 10° 01:24:21 10° 266° (W) 1,515 0.3 -16.5°
Maximum altitude 01:26:46 18° 220° (SW) 1,108 -0.9 -16.9°
Drops below altitude 10° 01:29:09 10° 175° (S) 1,503 -0.8 -17.3°
Enters shadow 01:31:53 -1° 155° (SSE) 2,441 0.0 -17.7°
